Stations météo

Publicité
Montpellier, France (7643): Température de l'air & dewpoint: 26.03.2020 11:00:00 - 01.04.2020 11:00:00 (CEST)Montpellier, France (7643): Température de l'air 5cm: 26.03.2020 11:00:00 - 01.04.2020 11:00:00 (CEST)Montpellier, France (7643): Température de l'air -20cm & Température de l'air -100cm: 26.03.2020 11:00:00 - 01.04.2020 11:00:00 (CEST)Montpellier, France (7643): Vitesse du vent & gusts: 26.03.2020 11:00:00 - 01.04.2020 11:00:00 (CEST)Montpellier, France (7643): Direction du vent: 26.03.2020 11:00:00 - 01.04.2020 11:00:00 (CEST)Montpellier, France (7643): reduced air pressure: 26.03.2020 11:00:00 - 01.04.2020 11:00:00 (CEST)Montpellier, France (7643): visibility: 26.03.2020 11:00:00 - 01.04.2020 11:00:00 (CEST)Montpellier, France (7643): Ensoleillement: 26.03.2020 11:00:00 - 01.04.2020 11:00:00 (CEST)Montpellier, France (7643): Quantités de précipitations: 26.03.2020 11:00:00 - 01.04.2020 11:00:00 (CEST)
Date & Time tt [°C] td [°C] tt 5cm [°C] tt -20cm [°C] tt -100cm [°C] ff [km/h] ff [knt] fx [km/h] fx [knt] dd ppp [hPa] vv [km] sd [min] rr [mm]
01.04.2020 11:00:00 - - - - - - - - - - - - - -
01.04.2020 10:00:00 11,4 4,8 10,7 12,7 13,7 15 8 22 12 E 1019,8 52 3 0,0
01.04.2020 09:00:00 9,9 3,8 7,9 12,7 13,7 9 5 14 8 NNE 1019,5 53 0 0,0
01.04.2020 08:00:00 8,6 2,4 8,0 12,8 13,7 6 3 14 8 NNE 1019,4 60 0 0,0
01.04.2020 07:00:00 9,1 2,6 8,6 12,9 13,7 10 5 19 10 NNE 1019,0 60 0 0,0
01.04.2020 06:00:00 9,7 1,3 9,0 13,0 13,7 10 5 18 10 NNE 1018,8 60 0 0,0
01.04.2020 05:00:00 10,5 0,2 9,7 13,0 13,7 14 7 25 14 NE 1018,8 60 0 0,0
01.04.2020 04:00:00 11,3 5,0 10,4 13,2 13,7 11 6 37 20 SE 1019,2 59 0 0,0
01.04.2020 03:00:00 12,2 3,9 9,6 13,3 13,7 23 12 31 17 SE 1019,2 48 0 0,0
01.04.2020 02:00:00 11,6 7,7 9,2 13,3 13,7 19 10 30 16 ESE 1019,0 19 0 0,0
01.04.2020 01:00:00 11,9 9,3 11,4 13,4 13,7 12 6 21 11 NE 1018,8 16 0 0,0
01.04.2020 00:00:00 12,6 9,1 11,7 13,4 13,7 16 8 22 12 SSE 1018,8 56 0 0,0
31.03.2020 23:00:00 12,7 9,3 11,9 13,5 13,7 17 9 23 12 SE 1018,6 58 0 0,0
31.03.2020 22:00:00 12,5 9,5 11,4 13,5 13,7 13 7 22 12 ESE 1018,3 20 0 0,0
31.03.2020 21:00:00 12,5 10,4 11,4 13,6 13,7 15 8 25 13 ESE 1017,7 18 0 0,0
31.03.2020 20:00:00 12,8 10,3 12,4 13,6 13,7 21 12 37 20 SE 1017,4 19 0 0,0
31.03.2020 19:00:00 13,1 10,8 13,3 13,5 13,7 27 14 36 19 SE 1017,2 18 9 0,0
31.03.2020 18:00:00 13,6 11,1 15,5 13,3 13,7 30 16 42 23 SE 1017,0 18 36 0,0
31.03.2020 17:00:00 15,4 8,8 19,7 13,1 13,7 22 12 32 17 SE 1016,4 20 57 0,0
31.03.2020 16:00:00 15,4 9,3 17,4 12,8 13,7 13 7 24 13 SE 1016,6 19 34 0,0
31.03.2020 15:00:00 15,0 8,0 16,6 12,5 13,7 18 10 37 20 E 1016,9 20 19 0,0
31.03.2020 14:00:00 16,0 7,2 17,0 12,2 13,7 25 13 36 19 ENE 1016,9 19 43 0,0
31.03.2020 13:00:00 13,8 4,9 13,5 12,0 13,7 23 12 38 20 NE 1016,9 60 8 0,0
31.03.2020 12:00:00 12,3 4,3 13,1 11,9 13,7 27 15 37 20 NE 1017,0 60 1 0,0
31.03.2020 11:00:00 10,7 2,3 11,1 11,8 13,7 23 12 45 25 NNE 1017,3 60 19 0,0
31.03.2020 10:00:00 9,7 1,6 7,3 11,9 13,7 28 15 44 24 NNE 1016,9 20 44 0,0
31.03.2020 09:00:00 7,3 0,9 5,8 12,0 13,7 21 11 30 16 NNE 1016,5 44 25 0,0
31.03.2020 08:00:00 6,5 1,0 4,9 12,1 13,7 16 9 26 14 NNE 1016,1 58 12 0,0
31.03.2020 07:00:00 6,3 0,6 5,2 12,2 13,7 17 9 32 17 NNE 1015,5 59 0 0,0
31.03.2020 06:00:00 7,0 0,6 5,9 12,4 13,7 19 10 33 18 NNE 1015,2 60 0 0,0
31.03.2020 05:00:00 7,4 1,0 5,8 12,5 13,7 14 8 26 14 N 1015,4 60 0 0,0
31.03.2020 04:00:00 6,9 1,4 5,2 12,6 13,7 18 10 27 15 N 1015,6 60 0 0,0
31.03.2020 03:00:00 6,8 1,3 5,3 12,8 13,7 15 8 26 14 N 1016,0 60 0 0,0
31.03.2020 02:00:00 7,5 1,1 5,9 12,9 13,7 13 7 29 15 N 1015,9 60 0 0,0
31.03.2020 01:00:00 7,3 1,4 5,4 13,1 13,7 15 8 29 16 N 1016,0 60 0 0,0
31.03.2020 00:00:00 8,1 1,5 5,9 13,3 13,7 19 11 35 19 N 1016,3 60 0 0,0
30.03.2020 23:00:00 7,7 1,7 3,0 13,5 13,7 13 7 26 14 N 1016,2 60 0 0,0
30.03.2020 22:00:00 8,2 2,8 3,0 13,7 13,7 8 4 21 11 N 1016,1 60 0 0,0
30.03.2020 21:00:00 9,4 3,1 7,0 13,8 13,7 14 7 26 14 NE 1015,4 60 0 0,0
30.03.2020 20:00:00 11,6 4,1 10,5 13,9 13,7 15 8 30 16 NE 1014,5 60 0 0,0
30.03.2020 19:00:00 13,7 5,6 12,9 13,8 13,6 8 4 18 10 SSW 1013,9 60 0 0,0
30.03.2020 18:00:00 14,6 5,4 17,2 13,7 13,6 7 4 21 11 S 1013,6 60 40 0,0
30.03.2020 17:00:00 15,5 3,9 21,6 13,5 13,6 10 5 22 12 N 1013,6 60 60 0,0
30.03.2020 16:00:00 15,4 3,8 18,6 13,2 13,6 10 6 25 14 N 1014,2 60 28 0,0
30.03.2020 15:00:00 14,6 4,0 20,6 12,8 13,7 12 7 27 14 NNE 1014,7 60 53 0,0
30.03.2020 14:00:00 13,8 3,0 19,0 12,5 13,6 16 9 32 18 NNE 1014,9 20 50 0,0
30.03.2020 13:00:00 13,1 2,9 16,3 12,2 13,6 18 10 44 24 NNE 1015,5 60 38 0,0
30.03.2020 12:00:00 11,9 1,8 11,1 12,0 13,6 10 5 34 18 NNW 1016,0 60 21 0,0
30.03.2020 11:00:00 9,8 1,7 10,6 11,9 13,6 16 8 30 16 N 1015,8 60 27 0,0
30.03.2020 10:00:00 9,3 1,7 6,1 12,0 13,6 12 6 19 11 N 1015,6 60 12 0,0
30.03.2020 09:00:00 6,2 1,5 4,7 12,0 13,6 7 4 14 8 N 1015,5 60 0 0,0
30.03.2020 08:00:00 5,6 1,1 3,4 12,1 13,6 9 5 18 10 N 1015,2 60 0 0,0
30.03.2020 07:00:00 4,9 0,8 2,3 12,2 13,6 9 5 13 7 NNE 1014,8 60 0 0,0
30.03.2020 06:00:00 5,9 0,4 1,3 12,4 13,6 10 6 14 8 NNW 1015,1 60 0 0,0
30.03.2020 05:00:00 6,3 0,0 2,9 12,5 13,6 3 2 23 12 WNW 1015,3 60 0 0,0
30.03.2020 04:00:00 5,3 -0,1 3,0 12,7 13,6 11 6 22 12 N 1015,0 60 0 0,0
30.03.2020 03:00:00 5,6 -0,3 4,0 12,9 13,6 16 9 31 17 NNE 1014,9 60 0 0,0
30.03.2020 02:00:00 5,5 0,3 4,0 13,1 13,6 15 8 25 14 N 1015,6 60 0 0,0
30.03.2020 01:00:00 6,5 0,4 4,9 13,3 13,6 17 9 30 16 N 1015,9 60 0 0,0
30.03.2020 00:00:00 6,9 1,0 5,7 13,5 13,6 19 10 44 24 NNE 1015,9 60 0 0,0
29.03.2020 23:00:00 8,1 1,2 7,1 13,7 13,6 29 16 49 26 NNE 1015,8 54 0 0,0
29.03.2020 22:00:00 9,5 1,6 8,4 14,0 13,6 31 17 50 27 NNE 1015,4 45 0 0,0
29.03.2020 21:00:00 10,8 2,6 9,8 14,2 13,6 31 17 51 28 NNE 1014,7 35 0 0,0
29.03.2020 20:00:00 13,1 3,5 12,4 14,3 13,6 31 17 50 27 N 1014,0 19 0 0,0
29.03.2020 19:00:00 15,1 5,0 13,8 14,3 13,6 27 15 43 23 NNE 1012,8 17 0 0,0
29.03.2020 18:00:00 17,1 4,7 16,3 14,4 13,6 19 10 37 20 N 1012,2 20 0 0,0
29.03.2020 17:00:00 18,6 5,4 18,4 14,3 13,6 23 13 36 19 N 1011,7 20 7 0,0
29.03.2020 16:00:00 20,4 6,3 19,0 14,2 13,6 19 11 37 20 NNE 1011,7 19 2 0,0
29.03.2020 15:00:00 19,3 6,7 19,6 13,9 13,6 19 10 29 15 N 1012,0 20 0 0,0
29.03.2020 14:00:00 20,5 7,1 22,2 13,5 13,6 17 9 40 22 N 1012,6 47 38 0,0
29.03.2020 13:00:00 20,2 6,2 25,5 13,0 13,5 17 9 32 18 N 1013,1 17 53 0,0
29.03.2020 12:00:00 20,1 6,8 21,8 12,8 13,6 16 9 32 17 NNW 1013,6 20 23 0,0
29.03.2020 11:00:00 18,3 5,5 18,9 12,6 13,5 16 9 30 16 WNW 1013,8 20 50 0,0
29.03.2020 10:00:00 16,1 5,4 11,7 12,6 13,6 21 11 31 17 WNW 1014,1 60 56 0,0
29.03.2020 09:00:00 12,4 4,6 8,4 12,6 13,6 16 9 22 12 WNW 1014,0 51 1 0,0
29.03.2020 08:00:00 11,2 3,7 7,0 12,7 13,5 12 7 17 9 WNW 1014,0 51 9 0,0
29.03.2020 07:00:00 11,1 3,4 7,8 12,8 13,5 15 8 19 10 W 1014,0 59 0 0,0
29.03.2020 06:00:00 11,7 3,2 8,4 12,9 13,5 12 6 24 13 WNW 1014,2 60 0 0,0
29.03.2020 05:00:00 11,6 3,1 8,2 13,1 13,5 16 9 24 13 WNW 1014,6 60 0 0,0
29.03.2020 04:00:00 11,4 3,2 6,1 13,3 13,5 12 7 16 9 WNW 1015,0 59 0 0,0
29.03.2020 03:00:00 11,4 3,9 6,7 13,4 13,5 10 6 16 8 WNW 1015,4 50 0 0,0
29.03.2020 02:00:00 11,9 5,1 4,5 13,6 13,5 9 5 15 8 W 1015,7 47 0 0,0
29.03.2020 01:00:00 12,5 6,5 8,1 13,8 13,5 9 5 14 8 WNW 1015,7 29 0 0,0
29.03.2020 00:00:00 12,2 8,5 6,2 13,9 13,5 13 7 14 8 NW 1015,7 20 0 0,0
28.03.2020 23:00:00 12,0 8,1 8,2 14,1 13,5 6 4 15 8 NW 1015,7 20 0 0,0
28.03.2020 22:00:00 11,9 8,6 9,7 14,2 13,5 11 6 26 14 N 1015,5 19 0 0,0
28.03.2020 21:00:00 12,4 9,6 10,5 14,3 13,5 17 9 24 13 N 1014,3 16 0 0,0
28.03.2020 20:00:00 14,8 9,2 12,0 14,4 13,5 11 6 24 13 SW 1013,3 49 45 0,0
28.03.2020 19:00:00 16,5 10,8 16,6 14,4 13,5 19 10 28 15 SSW 1013,1 20 60 0,0
28.03.2020 18:00:00 15,6 9,7 20,2 14,3 13,5 17 9 35 19 S 1013,6 38 60 0,0
28.03.2020 17:00:00 16,0 8,7 20,9 14,1 13,5 19 11 30 16 S 1014,0 19 60 0,0
28.03.2020 16:00:00 16,6 8,3 21,7 13,8 13,5 17 9 29 15 S 1014,7 40 60 0,0
28.03.2020 15:00:00 17,2 7,5 22,7 13,4 13,5 20 11 30 16 SSW 1015,4 20 60 0,0
28.03.2020 14:00:00 16,5 7,9 20,0 13,0 13,5 16 9 27 14 SSW 1016,2 20 55 0,0
28.03.2020 13:00:00 16,2 3,9 24,3 12,6 13,5 13 7 21 11 S 1016,7 18 60 0,0
28.03.2020 12:00:00 16,0 4,1 19,3 12,3 13,5 8 5 16 8 S 1017,1 18 54 0,0
28.03.2020 11:00:00 14,3 4,6 15,6 12,2 13,5 5 3 9 5 SW 1017,5 20 9 0,0
28.03.2020 10:00:00 11,9 5,7 9,9 12,1 13,5 3 1 7 4 SW 1017,2 19 0 0,0
28.03.2020 09:00:00 8,9 6,2 6,2 12,2 13,5 3 2 9 5 NNW 1017,2 19 0 0,0
28.03.2020 08:00:00 8,5 4,5 4,5 12,3 13,5 5 3 8 4 WNW 1016,9 20 0 0,0
28.03.2020 07:00:00 6,7 4,2 2,9 12,4 13,5 3 1 5 3 WNW 1016,8 17 0 0,0
28.03.2020 06:00:00 6,6 3,9 3,4 12,6 13,6 2 1 7 4 NNW 1016,7 19 0 0,0
28.03.2020 05:00:00 7,7 3,5 4,4 12,7 13,5 4 2 8 5 N 1016,5 17 0 0,0
28.03.2020 04:00:00 8,3 3,7 4,0 12,8 13,5 8 4 11 6 N 1016,5 19 0 0,0
28.03.2020 03:00:00 8,1 3,5 4,0 12,9 13,5 9 5 13 7 N 1016,5 19 0 0,0
28.03.2020 02:00:00 8,8 4,4 6,0 13,1 13,5 11 6 14 7 NNE 1016,5 19 0 0,0
28.03.2020 01:00:00 10,0 6,0 7,2 13,2 13,5 9 5 16 9 N 1016,6 19 0 0,0
28.03.2020 00:00:00 9,7 6,8 5,6 13,3 13,5 11 6 14 7 NE 1016,4 16 0 0,0
27.03.2020 23:00:00 10,2 8,0 7,7 13,4 13,5 9 5 10 5 NNE 1016,1 18 0 0,0
27.03.2020 22:00:00 11,1 9,2 7,6 13,5 13,5 6 3 8 4 NE 1015,3 20 0 0,0
27.03.2020 21:00:00 11,9 9,8 9,3 13,5 13,5 7 4 14 8 E 1014,6 44 0 0,0
27.03.2020 20:00:00 13,3 9,5 11,5 13,5 13,5 5 3 9 5 SE 1013,7 56 0 0,0
27.03.2020 19:00:00 14,1 8,3 14,3 13,5 13,5 6 3 15 8 S 1013,2 60 0 0,0
27.03.2020 18:00:00 15,0 5,8 15,1 13,4 13,5 11 6 25 14 SSW 1012,7 58 0 0,0
27.03.2020 17:00:00 13,9 7,6 14,8 13,3 13,5 16 8 26 14 SSW 1012,8 57 0 0,0
27.03.2020 16:00:00 13,8 6,9 15,4 13,2 13,5 16 9 26 14 SSW 1012,8 57 0 0,0
27.03.2020 15:00:00 14,6 5,4 17,5 12,9 13,5 17 9 25 13 S 1012,9 19 39 0,0
27.03.2020 14:00:00 13,4 5,0 18,3 12,6 13,5 16 8 23 12 S 1013,1 60 27 0,0
27.03.2020 13:00:00 13,8 3,8 18,5 12,3 13,6 10 5 18 10 S 1013,0 60 45 0,0
27.03.2020 12:00:00 14,5 2,4 17,9 12,0 13,5 7 4 14 8 SSE 1013,3 60 48 0,0
27.03.2020 11:00:00 12,7 2,2 14,1 11,8 13,5 5 3 16 9 NNW 1013,5 53 56 0,0
27.03.2020 10:00:00 10,3 2,9 9,1 11,7 13,5 8 4 12 6 N 1013,4 59 7 0,0
27.03.2020 09:00:00 8,4 3,4 6,2 11,8 13,6 8 4 12 7 N 1013,0 59 0 0,0
27.03.2020 08:00:00 7,3 3,5 5,7 11,8 13,5 8 4 10 5 N 1012,7 60 2 0,0
27.03.2020 07:00:00 7,8 3,8 5,7 11,9 13,6 7 4 8 5 NW 1012,5 57 0 0,0
27.03.2020 06:00:00 8,1 3,0 5,6 12,0 13,6 7 4 9 5 NW 1012,4 51 0 0,0
27.03.2020 05:00:00 7,2 3,6 5,5 12,0 13,6 6 3 8 4 N 1012,4 60 0 0,0
27.03.2020 04:00:00 7,3 3,5 5,8 12,1 13,5 6 3 8 4 N 1012,4 60 0 0,0
27.03.2020 03:00:00 8,9 2,2 6,2 12,2 13,6 7 4 13 7 NW 1012,4 60 0 0,0
27.03.2020 02:00:00 8,2 2,6 6,1 12,3 13,6 10 5 12 7 NW 1012,2 60 0 0,0
27.03.2020 01:00:00 8,8 2,6 7,0 12,4 13,6 13 7 17 9 WNW 1012,0 60 0 0,0
27.03.2020 00:00:00 8,9 2,9 6,7 12,5 13,6 11 6 18 10 W 1012,2 57 0 0,0
26.03.2020 23:00:00 8,9 3,1 7,6 12,7 13,6 14 8 22 12 W 1012,3 55 0 0,0
26.03.2020 22:00:00 9,1 3,5 8,2 12,8 13,5 17 9 25 14 W 1012,3 47 0 0,0
26.03.2020 21:00:00 9,8 2,9 8,5 12,9 13,6 17 9 22 12 W 1012,1 59 0 0,0
26.03.2020 20:00:00 10,2 2,1 8,7 13,0 13,6 15 8 25 14 WSW 1011,8 60 42 0,0
26.03.2020 19:00:00 11,7 1,3 12,1 13,1 13,6 18 10 23 13 SW 1011,6 60 60 0,0
26.03.2020 18:00:00 12,2 0,9 16,7 12,9 13,6 15 8 22 12 SSW 1011,4 58 60 0,0
26.03.2020 17:00:00 12,4 -0,8 19,2 12,7 13,6 13 7 18 10 SSW 1011,6 60 60 0,0
26.03.2020 16:00:00 12,3 -0,3 21,9 12,3 13,6 6 3 15 8 SSE 1011,7 60 60 0,0
26.03.2020 15:00:00 12,5 0,6 20,9 11,8 13,5 8 4 18 10 E 1011,9 20 60 0,0
26.03.2020 14:00:00 12,0 0,1 18,9 11,5 13,6 13 7 22 12 E 1012,1 60 60 0,0
26.03.2020 13:00:00 11,4 1,3 16,1 11,1 13,6 17 9 29 16 E 1012,1 20 60 0,0
26.03.2020 12:00:00 9,7 1,6 9,0 11,0 13,6 19 11 34 19 NE 1012,1 60 54 0,0
26.03.2020 11:00:00 - - - - - - - - - - - - - -

tt = Température de l'air
td = dewpoint
tt 5cm = Température de l'air 5cm
tt -20cm = Température de l'air -20cm
tt -100cm = Température de l'air -100cm
ff = Vitesse du vent
fx = gusts
dd = Direction du vent
ppp = reduced air pressure
vv = visibility
sd = Ensoleillement
rr = Quantités de précipitations

stations d'obs. à proximité